Temperature
13 13 14 15 12 11 13 14 14 15 15 16 16 17 16 15 16 17 16 16 16 16 16 15 15 15 16 16 16 16 16 17 17 17 17 17 17 17 16 16 16 16 16 16 16 16 16 16 16
13 13 14 14 11 12 13 13 14 15 16 16 16 16 15 15 15 16 15 15 15 16 15 15 15 15 16 16 16 16 16 16 16 16 16 16 16 16 16 16 16 16 16 16 16 16 16 16 16
13 13 14 10 11 12 14 14 13 15 16 16 15 15 15 15 15 15 15 15 15 15 15 15 15 15 15 16 16 16 16 16 16 16 16 16 16 16 16 16 16 16 16 16 16 15 15 15 15
13 13 13 10 12 12 13 15 14 14 15 16 15 14 14 15 15 15 15 15 15 15 15 15 15 15 15 16 16 16 16 16 16 16 16 16 16 16 16 16 16 16 16 15 15 15 15 15 15
13 13 11 11 11 12 12 13 15 14 14 14 15 13 14 14 14 15 15 15 15 15 15 15 15 15 15 15 15 16 16 16 16 16 16 16 16 16 16 16 15 15 15 15 15 15 15 15 14
12 10 10 10 11 12 12 14 15 14 14 14 14 13 14 15 14 14 14 14 14 14 14 14 14 15 15 15 15 15 15 15 15 15 15 15 15 15 15 15 15 15 15 15 15 15 15 14 14
11 9 10 11 11 13 14 15 14 13 13 14 15 13 13 14 14 14 14 14 14 14 14 14 14 14 15 15 15 15 15 15 15 15 15 15 15 15 15 15 15 15 15 15 15 15 15 14 14
12 10 11 10 11 13 14 15 15 15 14 15 15 13 14 15 14 14 13 13 13 13 14 14 14 14 14 14 14 14 14 14 15 15 15 14 14 15 15 15 15 15 15 14 14 14 14 14 14
12 9 10 10 11 13 14 14 15 15 15 14 15 15 15 15 14 13 13 13 13 13 13 13 14 14 14 14 14 14 14 14 14 14 14 14 14 14 14 14 14 14 14 14 14 14 14 14 13
11 9 10 12 12 13 14 14 14 14 13 13 14 15 15 14 14 14 13 13 13 13 13 13 13 14 14 14 14 14 14 14 14 14 14 14 14 14 14 14 14 14 14 13 13 13 13 13 13
9 9 11 12 13 14 13 14 14 13 13 13 15 15 14 14 14 14 14 14 13 13 13 13 13 13 13 13 14 14 14 14 14 14 14 14 14 14 14 13 13 13 13 13 13 13 13 13 13
9 10 11 12 13 13 13 13 13 13 15 16 16 16 15 14 14 14 14 14 13 13 13 13 13 13 13 13 13 13 13 13 13 13 13 13 13 13 13 13 13 13 13 13 13 13 13 12 12
9 10 11 12 13 13 13 12 12 13 15 15 15 15 14 14 14 14 14 13 13 13 13 13 13 13 13 13 13 13 13 13 13 13 13 13 13 13 13 13 13 12 12 12 12 12 12 12 12
10 10 11 12 12 12 12 12 12 13 14 14 14 14 14 14 14 13 13 13 13 13 13 13 13 12 12 13 13 13 13 13 12 12 13 12 12 12 12 12 12 12 12 12 12 12 12 12 11
10 10 10 10 11 11 12 11 10 13 13 13 13 13 13 13 13 14 14 14 13 13 13 12 12 12 12 12 12 12 12 12 12 12 12 12 12 12 12 12 12 12 11 11 11 11 11 11 11
9 9 9 10 10 11 11 10 11 12 12 12 12 13 13 13 13 13 13 13 13 13 12 12 12 12 12 12 12 12 12 12 12 12 12 11 11 11 11 11 11 11 11 11 11 11 11 11 11
8 8 8 9 9 9 10 9 10 11 11 11 11 12 12 13 13 13 13 13 13 13 12 12 12 12 12 11 11 11 11 11 11 11 11 11 11 11 11 11 11 11 10 10 10 10 10 10 10
7 7 8 8 9 9 8 9 9 10 10 10 10 11 12 12 13 13 13 13 13 12 12 12 12 11 11 11 11 11 11 11 11 11 11 11 10 10 10 10 10 10 10 10 10 10 10 9 10
7 7 8 8 9 8 8 8 9 9 9 8 9 10 11 12 13 12 12 12 12 12 12 12 11 11 11 11 11 11 11 11 10 10 10 10 10 10 10 10 10 10 9 9 9 9 9 9 9
7 7 7 8 8 8 8 8 8 8 8 9 9 10 11 12 12 12 12 12 12 12 12 12 11 11 11 11 11 11 11 10 10 10 10 10 9 9 9 9 9 9 9 9 9 9 9 9 8
7 7 7 7 8 8 8 8 8 8 8 9 10 11 11 12 12 12 12 12 12 12 12 12 11 11 11 11 10 10 10 10 10 10 10 9 9 9 9 9 9 9 9 9 8 8 8 8 8
6 7 7 7 7 6 7 6 7 7 7 7 8 9 10 11 12 12 12 12 12 12 12 12 11 11 11 10 10 10 10 10 10 10 9 9 9 9 9 8 8 8 8 8 8 8 7 7 7
6 7 7 7 6 5 6 6 6 6 7 7 7 9 10 11 11 12 12 12 12 12 12 11 11 11 11 10 10 10 10 10 9 9 9 9 8 8 8 8 8 8 8 8 7 7 7 7 6
6 6 6 5 5 5 5 5 6 6 7 8 7 8 9 10 11 11 12 12 12 12 11 11 11 11 10 10 10 10 9 9 9 9 9 8 8 8 8 8 7 7 7 7 7 7 7 6 6
6 5 5 5 4 4 5 5 6 6 7 7 7 7 9 9 10 11 11 11 11 11 11 11 10 10 10 10 9 9 9 9 9 9 8 8 8 8 7 7 7 7 7 7 7 6 6 6 6
5 5 5 4 4 4 4 4 5 6 6 6 7 7 8 8 9 10 10 10 11 11 11 10 10 10 10 9 9 9 9 9 8 8 8 8 7 7 7 7 7 6 6 6 6 6 6 6 5
5 5 5 4 4 4 4 4 4 6 5 5 5 6 7 8 8 9 10 10 10 10 10 10 10 10 9 9 9 9 8 8 8 8 7 7 7 7 6 6 6 6 6 6 6 6 5 5 5
5 4 4 4 4 5 5 5 5 6 5 5 4 4 6 7 7 8 9 9 9 10 10 10 9 9 9 9 8 8 8 8 7 7 7 7 6 6 6 6 6 5 5 5 5 5 5 5 5
3 4 4 4 4 4 5 5 5 5 5 4 3 4 5 6 7 7 8 8 9 9 9 9 9 8 8 8 8 8 7 7 7 7 6 6 6 6 6 5 5 5 5 5 5 5 5 4 4
3 3 3 4 3 3 3 4 5 4 3 3 3 4 4 5 6 6 7 7 8 8 8 8 8 8 8 8 7 7 7 7 6 6 6 6 5 5 5 5 5 5 5 5 4 4 4 4 4
Wind_Speed
2 4 3 4 5 3 5 6 4 3 4 2 2 4 7 7 6 4 1 3 7 8 10 13 14 14 13 13 14 13 13 14 13 13 13 13 12 12 12 11 11 11 11 11 10 10 9 9 9
2 2 4 5 5 3 7 6 6 6 5 4 3 3 4 2 1 4 3 4 8 9 10 12 14 14 13 13 13 13 13 13 13 13 12 12 12 11 11 11 11 11 10 10 10 9 9 9 9
2 3 4 5 5 7 7 5 7 2 4 3 3 2 2 3 3 4 3 8 9 8 10 12 14 14 13 13 13 13 12 12 12 12 12 11 11 11 11 10 10 10 10 9 9 9 9 8 8
3 4 4 3 7 7 6 3 4 3 2 2 4 2 0 1 3 4 7 9 10 8 9 12 13 13 13 13 13 12 12 12 12 11 11 11 11 10 10 10 10 9 9 9 8 9 8 8 8
4 4 3 3 7 6 6 4 4 3 4 3 5 4 0 4 3 8 9 10 10 7 8 11 13 13 13 13 12 12 12 12 12 12 11 11 10 10 10 10 9 9 9 9 8 8 8 8 8
4 4 4 6 7 5 5 5 4 3 3 4 6 5 1 1 6 8 9 8 8 8 8 10 12 12 12 12 12 12 12 12 12 11 11 11 10 10 10 9 9 9 9 8 8 8 8 8 8
4 4 5 5 4 5 5 5 6 6 5 6 7 6 1 2 5 8 8 8 7 7 8 8 10 11 12 12 12 12 12 11 11 11 10 10 10 10 9 9 9 9 9 9 8 8 8 9 9
4 4 4 5 5 6 3 3 3 7 5 4 7 8 6 7 7 8 8 7 7 6 7 7 9 10 10 11 12 12 12 12 11 11 11 11 10 10 10 9 9 9 9 9 9 9 9 9 9
4 3 6 7 7 5 2 3 1 2 6 3 2 3 3 11 12 11 8 6 5 5 5 6 8 9 10 10 11 11 12 12 11 11 11 11 10 10 9 9 9 9 9 9 10 10 10 9 9
5 6 9 5 5 3 1 3 4 4 3 2 1 2 8 13 14 14 12 11 9 7 5 5 6 7 8 8 10 10 10 11 10 10 10 10 10 9 9 10 10 10 9 9 10 10 10 9 8
7 8 5 4 3 2 1 1 3 6 5 7 8 9 12 13 14 14 13 11 10 8 6 5 6 7 7 7 8 8 8 9 9 9 10 9 9 9 9 9 9 9 9 9 9 9 9 8 8
5 6 4 3 1 1 2 1 1 5 6 4 7 12 15 17 17 16 15 12 9 8 7 6 6 6 6 7 6 6 6 6 6 7 8 8 6 6 6 6 6 7 6 6 7 6 7 8 8
6 4 3 3 2 1 1 2 2 5 4 1 7 12 15 16 14 10 9 9 9 9 8 7 6 6 6 6 5 5 5 5 6 6 6 7 5 3 4 4 5 5 6 5 5 5 5 6 6
6 4 3 3 4 2 3 4 2 6 2 4 7 11 12 14 13 9 9 10 10 10 9 7 7 6 6 5 4 4 5 6 6 5 5 6 6 4 3 3 3 4 4 4 4 4 4 3 4
3 2 4 4 4 3 2 7 7 6 4 6 7 9 10 10 10 12 13 12 12 11 9 8 8 7 6 6 5 5 5 6 4 4 5 5 5 5 4 3 2 3 4 4 4 4 4 3 4
3 3 5 5 6 4 6 12 7 4 7 8 8 8 9 10 10 11 11 10 10 10 9 9 8 8 7 6 5 5 5 5 4 4 4 4 5 5 4 3 2 2 3 4 2 2 3 3 3
4 6 8 4 5 5 8 9 5 4 7 8 8 9 9 9 9 9 10 10 10 11 11 10 8 9 7 6 5 5 5 4 4 4 3 4 4 4 4 2 2 2 3 3 2 2 2 2 4
8 6 6 7 4 5 8 9 7 3 6 8 8 8 9 11 12 9 9 9 10 10 10 10 8 8 7 5 4 3 3 2 2 3 3 3 4 4 4 3 2 3 2 2 2 2 2 1 2
6 6 6 6 3 4 8 11 10 6 6 8 8 9 10 11 8 7 8 9 9 9 10 10 9 8 7 5 4 4 2 2 1 1 2 3 3 3 3 2 2 2 1 1 1 1 2 3 3
4 5 5 3 1 3 5 10 9 8 8 9 10 11 11 9 6 7 8 9 11 12 12 11 11 10 9 7 5 3 3 2 1 1 1 2 3 3 3 2 1 1 1 2 1 1 1 2 3
7 8 6 4 2 2 2 8 7 6 5 6 8 9 9 11 11 9 9 10 11 12 13 12 12 10 9 7 5 4 4 3 1 1 1 1 2 2 2 2 2 1 1 0 0 0 1 1 2
9 7 6 4 2 3 2 6 7 5 5 7 8 8 9 9 8 8 9 10 11 12 11 11 11 10 9 9 8 8 5 4 4 2 2 1 2 2 2 2 2 2 1 1 1 0 0 1 1
5 5 5 4 3 2 3 4 8 3 6 9 9 9 8 8 8 9 10 11 10 10 10 10 10 9 9 9 9 8 5 3 2 2 2 1 1 1 1 2 2 1 1 1 1 0 0 1 1
5 4 3 2 2 5 8 7 8 5 8 7 7 7 7 6 6 7 7 7 7 7 8 9 10 9 9 9 9 8 8 6 4 3 3 2 1 1 1 1 1 1 1 1 1 1 1 1 1
6 6 2 2 3 8 5 7 10 7 6 7 7 6 5 4 5 5 6 8 8 9 9 9 10 9 9 9 9 8 8 7 7 5 4 3 1 1 2 1 1 1 1 1 1 1 1 2 2
7 8 7 7 7 4 4 8 8 6 4 4 4 3 2 2 3 5 7 8 9 10 10 10 11 9 9 9 8 7 7 5 4 5 4 4 3 3 2 2 2 1 1 1 1 1 1 1 2
6 6 5 4 2 2 5 6 8 3 2 2 2 1 1 2 2 3 5 6 7 9 9 11 11 9 9 8 7 6 6 5 5 4 3 3 2 2 2 2 1 1 1 1 1 1 2 2 2
5 6 4 5 5 5 4 5 5 4 3 2 2 2 2 1 0 1 3 4 5 6 7 8 9 9 8 8 7 6 6 5 5 4 4 3 2 2 2 1 1 1 1 1 1 1 2 2 3
2 4 4 4 4 5 4 6 3 4 2 1 2 2 1 1 1 1 1 2 4 5 6 6 7 6 6 6 6 5 5 4 4 4 4 3 2 2 2 2 1 1 2 1 1 2 2 2 3
2 4 5 5 4 3 3 5 3 1 1 0 1 2 3 2 2 2 2 3 4 5 5 6 6 6 6 6 5 5 4 4 4 3 3 3 2 2 2 2 1 1 2 2 2 2 2 2 3
Wind_Direction
62 78 74 62 64 65 232 235 220 218 208 203 150 146 159 162 165 182 115 144 130 136 143 140 137 133 128 123 119 115 111 107 104 100 97 94 91 88 84 80 76 74 72 70 68 68 68 66 63
113 88 60 70 113 192 251 232 217 212 180 135 88 97 116 164 116 119 146 148 131 129 133 138 137 134 131 126 123 119 114 110 107 103 100 97 93 89 84 79 76 73 70 68 65 65 65 64 61
116 66 93 100 159 194 227 224 217 206 171 147 105 73 142 171 160 164 166 138 120 116 123 136 137 134 131 128 125 122 118 114 110 106 102 98 94 89 84 80 77 73 70 68 64 63 61 60 57
102 63 66 121 216 222 226 239 181 154 157 135 136 117 4 357 176 165 134 128 119 114 120 131 132 131 131 129 126 122 119 117 112 108 104 100 94 89 83 79 76 74 70 67 63 59 57 54 51
70 96 119 223 237 244 241 241 180 167 174 156 143 146 177 347 101 124 128 128 127 121 116 129 131 129 126 123 122 121 119 116 112 107 103 99 94 89 84 79 75 72 68 64 59 55 51 49 45
82 95 151 221 238 257 253 215 170 179 168 152 148 144 194 26 130 135 130 127 125 121 109 122 130 128 125 122 118 115 117 115 111 106 101 96 93 90 86 81 77 72 67 62 56 52 48 43 39
133 141 190 208 229 250 242 179 173 176 184 194 164 141 186 175 158 134 123 119 112 107 102 100 112 119 121 120 118 115 111 112 111 106 101 96 92 88 84 78 74 69 64 59 53 49 45 42 39
147 143 189 209 209 237 220 170 181 171 188 155 149 156 194 189 148 121 111 108 107 102 103 100 102 104 105 111 115 113 109 104 103 101 96 92 87 83 80 74 71 66 61 56 50 46 44 42 40
117 141 208 208 197 230 198 165 128 112 124 137 187 198 188 140 135 128 122 119 123 116 108 108 104 102 105 106 108 105 103 99 94 92 93 87 78 74 72 70 68 64 60 56 51 46 44 42 40
148 200 219 212 202 218 203 177 166 125 131 160 146 72 122 140 150 155 159 161 160 154 141 126 116 108 104 101 97 93 91 91 89 88 87 84 79 74 72 68 65 63 59 56 50 45 41 38 34
180 208 221 241 238 234 213 188 168 146 195 205 190 168 150 157 163 169 172 171 169 161 151 141 130 116 110 104 101 94 93 89 88 90 89 86 80 73 67 60 54 51 50 47 42 39 35 35 33
195 228 219 245 237 221 215 183 178 196 221 214 180 158 161 169 177 180 178 174 165 160 160 152 138 124 116 113 108 104 98 94 89 91 94 90 80 71 66 61 54 50 48 45 40 38 32 32 30
212 234 223 242 277 271 262 250 242 252 261 135 134 151 169 178 183 182 173 166 163 168 168 162 149 139 129 118 114 111 107 106 106 99 95 98 92 83 74 66 60 52 48 46 40 38 33 30 25
207 216 248 248 242 252 237 273 250 253 189 150 159 173 182 185 182 172 171 175 179 178 175 165 157 146 135 132 129 124 120 117 111 103 100 101 101 96 86 73 61 48 43 44 46 38 36 27 25
155 194 274 249 211 218 172 275 236 230 166 181 191 190 191 196 187 187 186 184 183 180 174 170 163 149 144 141 136 130 128 125 116 111 109 104 105 104 95 84 66 45 41 46 46 37 36 28 19
135 176 235 244 195 195 171 249 254 200 179 200 206 204 201 207 202 199 191 185 180 174 172 173 168 157 153 145 136 129 129 125 121 121 116 110 110 110 99 84 63 46 51 51 43 25 20 12 3
180 206 219 242 203 176 188 241 256 191 188 211 214 213 210 213 213 207 195 188 182 178 174 172 167 162 158 144 130 125 124 122 125 124 119 118 114 113 107 95 67 62 62 52 32 25 23 2 352
199 197 204 212 212 179 208 239 258 228 204 221 224 221 217 216 218 206 196 188 182 178 174 172 166 161 148 132 117 108 107 107 113 125 129 126 120 116 108 98 75 69 66 36 29 21 13 358 334
171 183 215 226 211 191 226 246 256 249 230 235 234 227 226 226 222 198 191 182 176 176 175 175 169 164 153 147 147 147 160 159 150 131 136 135 127 123 113 98 83 72 72 52 34 28 18 7 351
191 205 225 263 229 207 245 262 259 244 231 226 227 228 226 224 213 198 190 184 183 183 183 179 176 170 169 167 159 146 142 151 164 150 131 144 140 135 124 121 116 96 79 49 34 42 31 3 12
217 208 210 218 340 339 307 287 257 255 235 236 232 230 224 216 213 203 195 193 187 186 185 183 180 175 170 155 133 110 92 82 99 158 177 193 171 156 137 140 138 136 132 164 312 72 77 2 1
226 208 191 190 186 261 187 271 271 252 256 245 241 232 226 220 213 203 194 192 192 192 185 180 176 172 167 157 157 156 162 173 192 185 193 203 173 159 150 151 150 151 158 201 254 12 238 147 331
202 169 173 183 183 254 222 232 275 254 252 249 241 235 230 220 208 204 199 194 190 184 179 176 170 169 166 165 167 165 165 166 155 146 157 170 179 158 159 158 149 163 191 224 252 291 258 199 225
153 110 85 76 115 243 216 203 267 226 225 245 243 238 233 219 209 207 199 181 177 172 169 168 166 169 168 167 168 171 167 159 151 158 166 180 210 226 192 155 156 185 212 229 241 242 239 240 242
154 139 145 187 213 239 198 207 248 243 230 233 246 247 245 223 206 198 186 178 175 172 171 169 168 171 171 170 174 176 172 169 173 178 182 184 202 238 238 227 222 233 232 229 223 254 262 247 254
188 169 176 188 206 241 185 225 251 259 265 258 256 247 251 231 207 199 191 181 177 176 173 170 172 172 173 175 179 176 170 173 180 183 184 194 208 220 221 225 231 245 244 246 230 261 276 271 265
164 195 176 147 144 211 237 269 296 272 320 332 339 6 302 258 224 195 178 171 171 172 176 175 173 169 173 176 172 170 171 174 179 179 178 190 204 210 200 217 235 252 247 235 235 264 285 283 273
168 155 142 162 173 221 252 251 243 253 269 322 355 342 322 343 35 141 157 165 167 169 169 167 168 170 171 170 172 174 177 179 175 171 182 191 197 192 191 214 236 247 250 248 254 278 281 285 288
131 159 169 167 183 178 220 257 241 225 237 247 303 332 350 18 73 119 127 143 143 143 150 158 159 155 158 164 165 163 168 167 166 175 188 190 189 181 187 204 221 247 258 260 264 274 279 288 297
205 189 171 178 209 189 192 262 317 241 287 115 19 18 27 40 49 74 101 106 119 137 146 152 156 157 162 160 154 155 154 153 159 171 176 170 172 179 183 186 208 252 264 261 251 271 277 281 289
Height
1487 1489 1491 1494 1499 1509 1507 1498 1493 1490 1489 1487 1487 1488 1490 1493 1497 1501 1495 1495 1499 1503 1506 1509 1512 1515 1517 1519 1520 1522 1523 1525 1526 1527 1528 1529 1529 1530 1531 1531 1531 1532 1532 1532 1533 1533 1533 1533 1533
1487 1489 1493 1494 1503 1512 1505 1494 1491 1486 1485 1486 1486 1487 1488 1490 1491 1492 1492 1495 1499 1503 1506 1509 1512 1514 1517 1519 1520 1522 1523 1525 1526 1527 1528 1528 1529 1530 1530 1531 1531 1532 1532 1532 1532 1532 1532 1533 1533
1487 1489 1492 1495 1503 1504 1494 1487 1485 1484 1485 1485 1486 1487 1488 1489 1490 1491 1493 1496 1499 1503 1506 1509 1512 1514 1516 1518 1520 1522 1523 1524 1525 1526 1527 1528 1529 1529 1530 1530 1531 1531 1531 1532 1532 1532 1532 1532 1532
1487 1490 1492 1498 1497 1493 1487 1482 1482 1483 1484 1484 1485 1487 1488 1490 1490 1491 1493 1496 1500 1503 1506 1509 1511 1514 1516 1518 1520 1521 1523 1524 1525 1526 1527 1528 1528 1529 1529 1530 1530 1531 1531 1531 1531 1531 1531 1531 1531
1486 1488 1494 1497 1493 1487 1483 1481 1481 1482 1483 1483 1485 1486 1487 1489 1490 1492 1494 1497 1500 1503 1506 1509 1511 1513 1515 1518 1519 1521 1522 1524 1525 1526 1527 1527 1528 1529 1529 1529 1530 1530 1530 1530 1530 1530 1530 1530 1530
1485 1487 1496 1496 1490 1484 1480 1479 1480 1481 1482 1483 1484 1486 1487 1489 1490 1493 1495 1498 1501 1504 1506 1509 1511 1513 1515 1517 1519 1520 1522 1523 1524 1525 1526 1527 1528 1528 1528 1529 1529 1529 1529 1529 1529 1529 1529 1529 1529
1484 1487 1490 1490 1487 1483 1477 1476 1478 1479 1480 1481 1482 1485 1486 1488 1491 1493 1496 1499 1501 1504 1506 1509 1511 1513 1515 1517 1518 1520 1521 1523 1524 1525 1526 1527 1527 1528 1528 1528 1528 1528 1528 1528 1528 1528 1528 1528 1528
1481 1485 1487 1487 1485 1480 1474 1474 1475 1476 1478 1480 1482 1483 1484 1486 1489 1493 1496 1499 1501 1504 1506 1508 1510 1512 1514 1516 1518 1519 1521 1522 1523 1525 1525 1526 1527 1527 1527 1527 1527 1528 1527 1527 1527 1527 1527 1527 1526
1480 1486 1485 1482 1480 1475 1472 1473 1474 1475 1476 1478 1479 1481 1482 1484 1488 1491 1494 1497 1500 1503 1505 1507 1509 1511 1514 1515 1517 1519 1520 1522 1523 1524 1525 1526 1526 1526 1527 1527 1527 1527 1527 1526 1526 1526 1526 1525 1525
1477 1482 1477 1474 1473 1472 1471 1471 1473 1474 1476 1477 1478 1479 1481 1483 1486 1488 1491 1494 1498 1501 1504 1506 1509 1511 1513 1515 1516 1518 1520 1521 1522 1523 1524 1525 1525 1526 1526 1526 1526 1526 1526 1526 1525 1525 1525 1524 1524
1473 1474 1472 1471 1470 1470 1471 1471 1472 1473 1475 1474 1474 1476 1479 1481 1484 1487 1490 1493 1496 1500 1503 1505 1508 1510 1512 1514 1516 1517 1519 1520 1521 1522 1523 1524 1524 1525 1525 1525 1525 1525 1525 1525 1524 1524 1524 1523 1523
1471 1469 1469 1469 1469 1470 1470 1470 1471 1471 1471 1471 1473 1474 1476 1479 1482 1485 1488 1492 1496 1499 1502 1504 1507 1509 1511 1513 1515 1516 1518 1519 1520 1521 1522 1523 1523 1524 1524 1524 1524 1524 1524 1523 1523 1523 1522 1522 1522
1468 1467 1467 1468 1468 1469 1469 1470 1470 1469 1469 1470 1471 1473 1475 1477 1480 1484 1488 1492 1494 1497 1500 1503 1505 1508 1510 1512 1514 1515 1517 1518 1519 1520 1521 1522 1522 1522 1523 1523 1523 1523 1523 1522 1522 1521 1521 1521 1520
1464 1466 1466 1467 1467 1468 1469 1469 1469 1465 1468 1468 1470 1472 1474 1476 1479 1483 1486 1489 1492 1495 1499 1501 1504 1507 1509 1511 1512 1514 1516 1517 1518 1519 1520 1521 1521 1521 1521 1522 1522 1521 1521 1521 1520 1520 1520 1519 1518
1463 1466 1466 1465 1466 1466 1468 1468 1465 1464 1466 1467 1468 1470 1473 1475 1478 1480 1483 1487 1490 1494 1497 1500 1503 1505 1507 1509 1511 1513 1514 1516 1517 1518 1519 1519 1520 1520 1520 1520 1520 1520 1520 1519 1519 1519 1518 1517 1517
1463 1466 1468 1463 1464 1465 1470 1467 1461 1462 1463 1464 1466 1468 1471 1473 1476 1479 1482 1485 1489 1492 1495 1498 1501 1503 1506 1508 1510 1511 1513 1514 1516 1517 1518 1518 1518 1519 1519 1519 1519 1519 1518 1518 1517 1517 1516 1515 1514
1465 1468 1466 1464 1462 1463 1466 1464 1459 1460 1461 1462 1463 1465 1467 1470 1473 1476 1479 1483 1486 1490 1493 1496 1498 1501 1504 1506 1508 1510 1511 1513 1514 1515 1516 1517 1517 1517 1517 1517 1517 1517 1517 1516 1515 1515 1514 1513 1512
1464 1466 1464 1464 1461 1462 1464 1461 1458 1458 1459 1460 1461 1462 1464 1466 1468 1472 1476 1480 1484 1487 1490 1493 1496 1499 1501 1504 1506 1508 1509 1511 1512 1513 1514 1515 1515 1515 1516 1516 1515 1515 1515 1515 1514 1513 1512 1511 1509
1458 1461 1462 1461 1459 1462 1462 1460 1457 1456 1457 1457 1458 1459 1460 1462 1465 1469 1472 1476 1480 1483 1486 1490 1493 1496 1498 1500 1502 1504 1506 1508 1510 1511 1512 1513 1513 1513 1514 1514 1514 1513 1513 1513 1512 1511 1510 1509 1507
1456 1460 1461 1460 1459 1460 1461 1459 1455 1453 1453 1452 1453 1453 1455 1458 1461 1464 1467 1471 1474 1478 1482 1486 1489 1492 1495 1497 1500 1502 1504 1506 1508 1509 1510 1510 1511 1511 1512 1512 1512 1511 1511 1511 1510 1509 1508 1507 1506
1455 1458 1459 1461 1461 1460 1461 1457 1452 1448 1448 1448 1448 1449 1450 1452 1455 1458 1462 1465 1469 1473 1477 1481 1485 1488 1491 1494 1497 1499 1501 1503 1505 1506 1507 1508 1508 1509 1509 1509 1509 1509 1509 1509 1508 1507 1506 1505 1504
1454 1454 1456 1458 1464 1467 1464 1466 1452 1448 1446 1444 1443 1444 1445 1447 1450 1453 1456 1460 1463 1468 1472 1477 1481 1484 1488 1490 1493 1495 1497 1499 1501 1502 1504 1505 1506 1506 1507 1507 1507 1507 1507 1506 1506 1505 1505 1504 1502
1450 1451 1455 1458 1464 1468 1466 1469 1452 1447 1445 1441 1439 1439 1440 1443 1445 1448 1451 1454 1459 1464 1468 1473 1477 1480 1484 1487 1490 1492 1494 1497 1499 1500 1501 1502 1503 1504 1504 1504 1504 1504 1504 1504 1504 1503 1503 1502 1501
1449 1453 1458 1463 1466 1470 1464 1467 1453 1447 1438 1436 1435 1435 1436 1439 1441 1444 1447 1451 1455 1459 1464 1468 1472 1476 1480 1483 1486 1489 1491 1493 1495 1497 1498 1499 1500 1501 1501 1502 1502 1502 1502 1502 1501 1501 1500 1499 1498
1447 1456 1464 1467 1472 1467 1460 1460 1448 1436 1433 1433 1432 1432 1433 1435 1437 1440 1442 1446 1450 1455 1459 1464 1468 1472 1476 1479 1482 1485 1488 1490 1492 1494 1495 1496 1496 1497 1498 1498 1499 1499 1499 1499 1499 1498 1497 1496 1495
1446 1450 1458 1464 1464 1462 1459 1456 1442 1433 1431 1430 1431 1431 1431 1432 1434 1436 1439 1442 1446 1450 1455 1459 1463 1467 1472 1476 1479 1482 1485 1487 1489 1491 1492 1493 1494 1494 1495 1496 1496 1496 1496 1496 1496 1495 1494 1493 1492
1444 1447 1448 1456 1461 1462 1457 1451 1440 1431 1430 1429 1429 1429 1429 1430 1431 1433 1436 1439 1443 1447 1451 1455 1460 1464 1468 1472 1476 1479 1481 1484 1486 1488 1489 1490 1491 1492 1492 1493 1493 1493 1493 1493 1492 1492 1491 1490 1489
1440 1443 1450 1453 1456 1453 1450 1448 1440 1432 1431 1430 1430 1429 1429 1429 1430 1432 1434 1437 1441 1445 1449 1453 1457 1461 1465 1469 1473 1476 1478 1481 1483 1485 1486 1487 1488 1489 1489 1489 1490 1490 1490 1490 1489 1489 1488 1487 1485
1443 1444 1444 1448 1449 1451 1451 1443 1432 1431 1430 1431 1430 1429 1429 1429 1430 1431 1433 1436 1439 1443 1447 1450 1454 1458 1462 1466 1470 1473 1475 1478 1480 1481 1483 1484 1485 1486 1486 1486 1487 1487 1486 1486 1486 1485 1484 1483 1481
1442 1442 1444 1446 1451 1453 1452 1445 1431 1431 1430 1430 1430 1430 1430 1430 1431 1432 1433 1435 1438 1441 1445 1448 1452 1456 1460 1463 1467 1470 1472 1475 1476 1478 1480 1481 1482 1483 1483 1483 1483 1483 1483 1483 1482 1481 1480 1479 1477